Printer-friendly version

IAU Minor Planet Center

Minor Planet Center

MPEC 2005-P43 : 2005 PA5

The following Minor Planet Electronic Circular may be linked-to from your own Web pages, but must not otherwise be redistributed electronically.


Read MPEC 2005-P42 Read MPEC 2005-P44


M.P.E.C. 2005-P43                                Issued 2005 Aug.  9, 11:02 UT

     The Minor Planet Electronic Circulars contain information on unusual
         minor planets and routine data on comets.  They are published
   on behalf of Commission 20 of the International Astronomical Union by the
          Minor Planet Center, Smithsonian Astrophysical Observatory,
                          Cambridge, MA 02138, U.S.A.

                  Supported in part by the Brinson Foundation
             Prepared using the Tamkin Foundation Computer Network

                              MPC@CFA.HARVARD.EDU
          URL http://cfa-www.harvard.edu/iau/mpc.html  ISSN 1523-6714

                                   2005 PA5

Observations:
     K05P05A* C2005 08 08.61583 00 14 58.05 -23 58 02.1          17.4 V EP043E12
     K05P05A  C2005 08 08.62809 00 15 01.22 -24 00 34.1          17.5 V EP043E12
     K05P05A  C2005 08 08.64075 00 15 04.53 -24 03 10.5          17.2 V EP043E12
     K05P05A  C2005 08 08.66444 00 15 10.54 -24 08 02.7          17.3 V EP043E12
     K05P05A  C2005 08 08.67765 00 15 13.89 -24 10 44.5          17.4 V EP043E12
     K05P05A  C2005 08 08.69045 00 15 17.13 -24 13 20.8          17.4 V EP043E12
     K05P05A  C2005 08 08.70323 00 15 20.34 -24 15 56.8          17.4 V EP043E12
     K05P05A  C2005 08 08.71763 00 15 23.94 -24 18 51.2          17.4 V EP043E12
     K05P05A  C2005 08 08.73058 00 15 27.18 -24 21 28.2          17.5 V EP043E12
     K05P05A  C2005 08 08.74246 00 15 30.16 -24 23 50.7          17.4 V EP043E12
     K05P05A  C2005 08 08.75453 00 15 33.19 -24 26 15.7          17.4 V EP043E12
     K05P05A  C2005 08 09.11995 00 17 24.84 -25 40 38.3          17.5 R EP043204
     K05P05A  C2005 08 09.12100 00 17 25.09 -25 40 50.3          17.4 R EP043204
     K05P05A  C2005 08 09.12205 00 17 25.33 -25 41 02.3          17.4 R EP043204
     K05P05A  C2005 08 09.12509 00 17 26.10 -25 41 37.0          17.2 R EP043204
     K05P05A  C2005 08 09.27244 00 18 16.18 -26 09 24.6          16.4 R EP043734
     K05P05A  C2005 08 09.27373 00 18 16.54 -26 09 39.1          17.0 R EP043734
     K05P05A  C2005 08 09.27501 00 18 16.84 -26 09 53.7          17.0 R EP043734
     K05P05A  C2005 08 09.27630 00 18 17.16 -26 10 08.9          17.9 R EP043734
     K05P05A  C2005 08 09.27890 00 18 17.81 -26 10 38.0          18.0 R EP043734
     K05P05A 2C2005 08 09.32202 00 18 30.22 -26 18 42.3          17.4 R EP043H06
     K05P05A 2C2005 08 09.32661 00 18 31.29 -26 19 34.7          17.1 R EP043H06
     K05P05A 2C2005 08 09.33109 00 18 32.41 -26 20 25.8          17.3 R EP043H06

Observer details:
204 Schiaparelli Observatory.  Observer L. Buzzi.  0.60-m f/4.64 Newtonian
    reflector + CCD.
734 Farpoint Observatory.  Observer D. Tibbets.  0.7-m reflector + CCD.
E12 Siding Spring Survey.  Observer G. J. Garradd.  Measurers E. C. Beshore,
    C. M. Casey, E. J. Christensen, G. J. Garradd, A. D. Grauer, R. E. Hill,
    S. M. Larson, R. H. McNaught.  0.5-m Uppsala Schmidt + CCD.
H06 New Mexico Skies Observatory.  Observer R. Hutsebaut.  0.25-m reflector
    + CCD.

Orbital elements:
2005 PA5                                                             PHA 0.050D
Epoch 2005 July 29.0 TT = JDT 2453580.5                 MPC
M  15.89251              (2000.0)            P               Q
n   0.65144791     Peri.  148.88429     +0.22149551     +0.95593709
a   1.3179014      Node   133.12762     -0.94016160     +0.26179591
e   0.2244705      Incl.   15.30755     -0.25891292     -0.13284269
P   1.51           H   21.9           G   0.15
From 23 observations 2005 Aug. 8-9.

Ephemeris:
2005 PA5                 a,e,i = 1.32, 0.22, 15                  q = 1.0221
Date    TT    R. A. (2000) Decl.     Delta      r     Elong.  Phase     V
2005 08 08    00 11.63   -21 48.2    0.0589   1.058   137.3    40.6    17.5
2005 08 18    00 48.56   -43 32.8    0.0996   1.080   131.1    44.9    18.8
2005 08 28    01 01.93   -51 11.2    0.147    1.107   127.8    46.2    19.7
2005 09 07    01 01.70   -54 01.5    0.198    1.136   126.4    45.6    20.4
2005 09 17    00 54.80   -54 23.0    0.249    1.168   125.7    44.4    20.9
2005 09 27    00 46.14   -53 06.3    0.302    1.201   124.9    43.2    21.4
2005 10 07    00 38.86   -50 35.8    0.358    1.236   123.9    42.2    21.8

Timothy B. Spahr             (C) Copyright 2005 MPC           M.P.E.C. 2005-P43

Read MPEC 2005-P42 Read MPEC 2005-P44


Our Web policy. Index to the CBAT/MPC/ICQ pages.


Valid HTML 4.01!